This is the latest recevied weather packets stored in our database for station/object K7KRJ-10. If no packets are shown the sender has not sent any weather packets the latest 10 day(s).
| Time | Temp. | Humidity | Pressure | Rain* | Wind** | Luminosity | Snow |
|---|---|---|---|---|---|---|---|
| 1777703867 | 24.44° C | 25% | 1008.9 hPa | 0 mm | - | 0 W/m² | - |
| 1777702965 | 24.44° C | 23% | 1008.8 hPa | 0 mm | - | 0 W/m² | - |
| 1777702061 | 23.89° C | 24% | 1008.8 hPa | 0 mm | - | 0 W/m² | - |
| 1777701159 | 24.44° C | 23% | 1008.7 hPa | 0 mm | - | 0 W/m² | - |
| 1777700258 | 25° C | 23% | 1008.3 hPa | 0 mm | - | 0 W/m² | - |
| 1777699357 | 25° C | 23% | 1008.2 hPa | 0 mm | - | 0 W/m² | - |
| 1777698454 | 25° C | 22% | 1008.3 hPa | 0 mm | - | 0 W/m² | - |
| 1777697551 | 25.56° C | 22% | 1008.2 hPa | 0 mm | - | 0 W/m² | - |
| 1777696647 | 25.56° C | 22% | 1008.1 hPa | 0 mm | - | 0 W/m² | - |
| 1777695747 | 26.67° C | 21% | 1008 hPa | 0 mm | - | 0 W/m² | - |
| 1777694845 | 26.67° C | 20% | 1008.1 hPa | 0 mm | - | 0 W/m² | - |
| 1777693941 | 26.67° C | 20% | 1007.9 hPa | 0 mm | - | 0 W/m² | - |
| 1777693040 | 27.22° C | 20% | 1007.5 hPa | 0 mm | - | 0 W/m² | - |
| 1777692135 | 27.78° C | 19% | 1007.5 hPa | 0 mm | - | 0 W/m² | - |
| 1777691230 | 28.33° C | 18% | 1007.3 hPa | 0 mm | - | 0 W/m² | - |
| 1777690328 | 28.89° C | 18% | 1007.2 hPa | 0 mm | - | 0 W/m² | - |
| 1777689427 | 28.89° C | 18% | 1006.9 hPa | 0 mm | - | 0 W/m² | - |
| 1777688524 | 28.89° C | 18% | 1006.8 hPa | 0 mm | - | 1 W/m² | - |
| 1777687621 | 29.44° C | 17% | 1006.6 hPa | 0 mm | - | 8 W/m² | - |
| 1777686718 | 30° C | 17% | 1006.6 hPa | 0 mm | - | 20 W/m² | - |
| 1777685814 | 30° C | 16% | 1006.5 hPa | 0 mm | - | 36 W/m² | - |
| 1777684911 | 30.56° C | 18% | 1006.4 hPa | 0 mm | - | 60 W/m² | - |
| 1777684007 | 30.56° C | 17% | 1006.7 hPa | 0 mm | - | 94 W/m² | - |
| 1777683104 | 30.56° C | 18% | 1006.7 hPa | 0 mm | - | 141 W/m² | - |
| 1777682201 | 31.11° C | 18% | 1006.7 hPa | 0 mm | - | 195 W/m² | - |
* Rain latest hour (hover to see other rain measurements)
** Current wind speed in m/s (hover to see current wind gust speed)